Date String (YYYY-MM-DD hh:mm:ss) UTC,Instrument flags,Ambient pressure (hPa),Sample flow (lpm),Bypass flow (lpm),Sample temperature (°C),Ambient temperature (°C),ASC tube jacket temperature (°C),LED temperature (°C),Box temperature (°C),Sample RH (%),Span deviation,Mass concentration (μg/m³),Mass concentration (μg/m³),Mass concentration (μg/m³)
DateTimeUTC,F1_M11,P_M11,Q1_M11,Q2_M11,T1_M11,T2_M11,T3_M11,T4_M11,T5_M11,U1_M11,ZSPAN_M11,X0_M11,X2_M11,X1_M11
2021-12-21 11:00:00,,0822.5,5.00,0.00,22.2,23.1,00.0,31.0,24.2,07.7,0000.0,0011.69,0003.82,0002.91
2021-12-21 11:01:00,,0822.7,5.01,0.00,22.2,22.8,00.0,31.1,24.1,08.1,0000.0,0011.09,0003.90,0003.03
2021-12-21 11:02:00,,0822.4,4.99,0.00,22.2,22.5,00.0,31.1,24.0,07.8,0000.0,0010.99,0004.06,0003.17
2021-12-21 11:03:00,,0822.3,5.01,0.00,22.2,22.2,00.0,31.1,23.9,07.1,0000.0,0011.46,0004.12,0003.22
2021-12-21 11:04:00,,0822.3,4.99,0.00,22.2,22.0,00.0,31.1,23.9,06.5,0000.0,0011.31,0004.11,0003.21
2021-12-21 11:05:00,,0822.4,5.01,0.00,22.2,21.8,00.0,31.1,23.8,07.1,0000.0,0011.31,0004.10,0003.20
2021-12-21 11:06:00,,0822.5,4.98,0.00,22.1,21.7,00.0,31.1,23.8,07.1,0000.0,0011.71,0003.98,0003.16
2021-12-21 11:07:00,,0822.5,5.01,0.00,22.1,21.6,00.0,31.1,23.8,06.3,0000.0,0011.44,0003.83,0002.99
2021-12-21 11:08:00,,0822.5,4.99,0.00,22.1,21.5,00.0,31.1,23.7,07.1,0000.0,0010.36,0003.69,0002.78
2021-12-21 11:09:00,,0822.6,5.01,0.00,22.1,21.4,00.0,31.1,23.6,07.8,0000.0,0010.10,0003.65,0002.70
2021-12-21 11:10:00,,0822.6,4.99,0.00,22.0,21.3,00.0,31.1,23.6,08.0,0000.0,0010.30,0003.64,0002.66
2021-12-21 11:11:00,,0822.5,4.99,0.00,22.0,21.2,00.0,31.1,23.5,07.6,0000.0,0010.17,0003.62,0002.64
2021-12-21 11:12:00,,0822.4,5.02,0.00,21.9,21.2,00.0,31.0,23.5,06.8,0000.0,0010.02,0003.50,0002.47
2021-12-21 11:13:00,,0822.3,5.00,0.00,21.9,21.1,00.0,31.0,23.5,06.3,0000.0,0009.72,0003.32,0002.25
2021-12-21 11:14:00,,0822.3,5.01,0.00,21.9,21.1,00.0,31.0,23.5,06.0,0000.0,0009.38,0003.14,0002.05
2021-12-21 11:15:00,,0822.6,4.98,0.00,21.9,21.1,00.0,31.0,23.5,06.3,0000.0,0009.42,0003.06,0001.98
2021-12-21 11:16:00,,0822.4,5.01,0.00,21.8,20.9,00.0,31.0,23.4,07.1,0000.0,0009.31,0003.05,0001.99
2021-12-21 11:17:00,,0822.4,4.99,0.00,21.8,20.8,00.0,30.9,23.3,06.7,0000.0,0008.55,0002.91,0001.89
2021-12-21 11:18:00,,0822.4,5.02,0.00,21.7,20.8,00.0,30.9,23.3,06.2,0000.0,0008.37,0002.89,0001.84
2021-12-21 11:19:00,,0822.5,4.98,0.00,21.7,20.8,00.0,30.9,23.3,06.1,0000.0,0008.17,0002.76,0001.77
2021-12-21 11:20:00,,0822.4,5.01,0.00,21.7,20.9,00.0,30.9,23.3,06.1,0000.0,0008.23,0002.46,0001.59
2021-12-21 11:21:00,,0822.5,4.99,0.00,21.7,20.9,00.0,30.9,23.3,06.4,0000.0,0007.89,0002.13,0001.38
2021-12-21 11:22:00,,0822.7,4.99,0.00,21.7,21.4,00.0,30.9,23.4,06.8,0000.0,0007.76,0001.95,0001.24
2021-12-21 11:23:00,,0822.7,5.01,0.00,21.9,22.4,00.0,30.9,23.8,07.3,0000.0,0007.94,0001.96,0001.25
2021-12-21 11:24:00,,0823.0,5.00,0.00,22.1,23.1,00.0,31.0,24.1,07.8,0000.0,0008.39,0002.28,0001.40
2021-12-21 11:25:00,,0822.8,5.00,0.00,22.1,22.9,00.0,31.0,24.1,07.8,0000.0,0008.81,0002.68,0001.62
2021-12-21 11:26:00,,0822.7,5.00,0.00,22.1,22.6,00.0,31.0,24.0,07.9,0000.0,0009.55,0002.99,0001.83
2021-12-21 11:27:00,,0822.8,5.00,0.00,22.1,22.3,00.0,31.0,23.9,07.9,0000.0,0010.59,0003.17,0001.93
2021-12-21 11:28:00,,0822.9,5.00,0.00,22.1,22.1,00.0,31.0,23.8,07.8,0000.0,0011.22,0003.27,0002.06
2021-12-21 11:29:00,,0823.1,5.00,0.00,22.0,21.8,00.0,31.0,23.7,07.7,0000.0,0011.19,0003.37,0002.21
2021-12-21 11:30:00,,0823.1,5.00,0.00,22.0,21.7,00.0,31.0,23.7,07.8,0000.0,0011.11,0003.51,0002.39
2021-12-21 11:31:00,,0823.0,5.00,0.00,22.0,21.6,00.0,31.0,23.7,07.6,0000.0,0011.46,0003.64,0002.53
2021-12-21 11:32:00,,0822.9,5.00,0.00,22.0,21.4,00.0,31.0,23.6,07.5,0000.0,0012.53,0003.74,0002.64
2021-12-21 11:33:00,,0823.0,4.99,0.00,21.9,21.3,00.0,31.0,23.5,07.5,0000.0,0012.78,0003.82,0002.73
2021-12-21 11:34:00,,0822.9,5.01,0.00,21.9,21.2,00.0,31.0,23.5,07.5,0000.0,0012.50,0003.85,0002.78
2021-12-21 11:35:00,,0822.7,5.01,0.00,21.9,21.2,00.0,31.0,23.4,07.6,0000.0,0013.05,0003.77,0002.71
2021-12-21 11:36:00,,0823.0,5.00,0.00,21.8,21.1,00.0,31.0,23.4,07.5,0000.0,0013.00,0003.71,0002.64
2021-12-21 11:37:00,,0823.2,5.00,0.00,21.8,21.1,00.0,30.9,23.4,07.6,0000.0,0012.31,0003.64,0002.56
2021-12-21 11:38:00,,0823.1,5.00,0.00,21.8,21.1,00.0,30.9,23.4,07.7,0000.0,0011.68,0003.59,0002.53
2021-12-21 11:39:00,,0823.1,4.99,0.00,21.8,21.1,00.0,30.9,23.4,07.5,0000.0,0011.14,0003.57,0002.47
2021-12-21 11:40:00,,0822.8,5.00,0.00,21.8,21.1,00.0,30.9,23.4,06.7,0000.0,0010.80,0003.45,0002.33
2021-12-21 11:41:00,,0823.2,4.99,0.00,21.8,21.1,00.0,30.9,23.3,07.1,0000.0,0010.75,0003.35,0002.20
2021-12-21 11:42:00,,0823.2,5.00,0.00,21.7,21.0,00.0,30.9,23.3,07.7,0000.0,0010.36,0003.36,0002.21
2021-12-21 11:43:00,,0823.2,5.00,0.00,21.7,21.0,00.0,30.9,23.3,07.8,0000.0,0009.27,0003.35,0002.24
2021-12-21 11:44:00,,0823.1,4.99,0.00,21.7,21.0,00.0,30.8,23.3,07.8,0000.0,0009.82,0003.34,0002.24
2021-12-21 11:45:00,,0823.2,5.01,0.00,21.7,21.0,00.0,30.8,23.3,07.5,0000.0,0009.63,0003.34,0002.22
2021-12-21 11:46:00,,0823.2,4.99,0.00,21.7,20.9,00.0,30.8,23.2,07.5,0000.0,0008.74,0003.32,0002.20
2021-12-21 11:47:00,,0823.2,5.01,0.00,21.6,20.8,00.0,30.8,23.2,07.2,0000.0,0008.37,0003.24,0002.15
2021-12-21 11:48:00,,0823.0,4.99,0.00,21.6,20.8,00.0,30.8,23.2,06.8,0000.0,0008.85,0003.17,0002.06
2021-12-21 11:49:00,,0823.2,5.01,0.00,21.6,20.8,00.0,30.8,23.2,06.6,0000.0,0008.33,0002.94,0001.90
2021-12-21 11:50:00,,0823.2,4.99,0.00,21.6,21.1,00.0,30.7,23.3,07.0,0000.0,0008.28,0002.77,0001.79
2021-12-21 11:51:00,,0823.4,5.00,0.00,21.8,22.0,00.0,30.8,23.6,07.3,0000.0,0008.75,0002.84,0001.83
2021-12-21 11:52:00,,0823.4,5.00,0.00,21.9,22.9,00.0,30.8,24.0,07.4,0000.0,0008.50,0002.88,0001.88
2021-12-21 11:53:00,,0823.5,5.01,0.00,22.1,23.0,00.0,30.9,24.1,07.5,0000.0,0008.30,0002.81,0001.86
2021-12-21 11:54:00,,0823.6,4.99,0.00,22.1,22.7,00.0,30.9,24.1,07.5,0000.0,0008.34,0002.82,0001.82
2021-12-21 11:55:00,,0823.5,5.01,0.00,22.1,22.5,00.0,30.9,24.0,07.4,0000.0,0007.84,0002.86,0001.80
2021-12-21 11:56:00,,0823.6,4.99,0.00,22.1,22.3,00.0,31.0,23.9,07.4,0000.0,0007.60,0002.78,0001.81
2021-12-21 11:57:00,,0823.5,5.01,0.00,22.1,22.1,00.0,31.0,23.9,07.2,0000.0,0007.63,0002.76,0001.82
2021-12-21 11:58:00,,0823.5,4.99,0.00,22.1,21.9,00.0,31.0,23.9,06.8,0000.0,0007.74,0002.73,0001.79
2021-12-21 11:59:00,,0823.7,4.99,0.00,22.1,21.8,00.0,31.0,23.8,06.9,0000.0,0007.67,0002.74,0001.78
